Change the Weather History Date:

Saturday, May 17, 2014

  Actual Average Record
Temperature  
Mean Temperature 50 °F 63 °F  
Max Temperature 62 °F 74 °F 92 °F (1894)
Min Temperature 38 °F 52 °F 34 °F (1973)
Degree Days  
Heating Degree Days 15 4  
Month to date heating degree days 109 104  
Since 1 July heating degree days 6576 5769  
Cooling Degree Days 0 2  
Month to date cooling degree days 49 24  
Year to date cooling degree days 55 38  
Moisture  
Dew Point 34 °F    
Average Humidity 62    
Maximum Humidity 92    
Minimum Humidity 31    
Precipitation  
Precipitation 0.00 in 0.15 in 1.39 in (1986)
Month to date precipitation 1.17 2.39  
Year to date precipitation 11.70 12.39  
Snow  
Snow 0.00 in 0.00 in 0.00 in ()
Month to date snowfall 0.0 0.0  
Since 1 July snowfall 57.6 24.6  
Snow Depth 0.00 in    
Sea Level Pressure  
Sea Level Pressure 30.17 in    
Wind  
Wind Speed 3 mph (WSW)    
Max Wind Speed 10 mph    
Max Gust Speed 15 mph    
Visibility 9 miles    
Events Fog    
T = Trace of Precipitation, MM = Missing Value Source: NWS Daily Summary

Daily Weather History Graph

Daily Weather History Graph

Search for Another Location

Airport or City:

Trip Planner

Search our weather history database for the weather conditions in past years. The results will help you decide how hot, cold, wet, or windy it might be!

Date:

Astronomy

May. 17, 2014 Rise Set
Actual Time 5:39 AM CDT 8:10 PM CDT
Civil Twilight 5:08 AM CDT 8:42 PM CDT
Nautical Twilight 4:29 AM CDT 9:21 PM CDT
Astronomical Twilight 3:46 AM CDT 10:04 PM CDT
Moon 11:11 PM CDT (5/17) 8:22 AM CDT (5/17)
Length of Visible Light 15h 33m
Length of Day
14h 30m
Waning Gibbous, 89% of the Moon is Illuminated
May 17
Waning Gibbous
May 21
Last Quarter
May 28
New
Jun 5
First Quarter
Jun 12
Full

Hourly Weather History & Observations

Time (CDT) Temp. Windchill Dew Point Humidity Pressure Visibility Wind Dir Wind Speed Gust Speed Precip Events Conditions
12:54 AM 41.0 °F - 37.9 °F 89% 30.14 in 9.0 mi Calm Calm - N/A   Overcast
1:54 AM 42.1 °F 40.2 °F 39.0 °F 89% 30.13 in 10.0 mi WSW 3.5 mph - N/A   Overcast
2:54 AM 42.1 °F 40.2 °F 37.9 °F 85% 30.13 in 10.0 mi WSW 3.5 mph - N/A   Overcast
3:54 AM 39.9 °F - 37.0 °F 89% 30.13 in 8.0 mi Calm Calm - N/A   Clear
4:40 AM 39.0 °F - 36.0 °F 89% 30.12 in 2.5 mi Calm Calm - N/A   Clear
4:54 AM 39.0 °F - 37.0 °F 93% 30.14 in 4.0 mi Calm Calm - N/A   Clear
5:54 AM 37.9 °F - 35.1 °F 89% 30.15 in 10.0 mi Calm Calm - N/A   Clear
5:56 AM 37.9 °F - 35.1 °F 89% 30.14 in 1.2 mi Calm Calm - N/A   Clear
6:04 AM 37.9 °F - 36.0 °F 93% 30.14 in 10.0 mi Calm Calm - N/A   Clear
6:12 AM 37.9 °F - 35.1 °F 89% 30.14 in 10.0 mi Calm Calm - N/A   Partly Cloudy
6:15 AM 37.9 °F - 36.0 °F 93% 30.14 in 10.0 mi Calm Calm - N/A Fog Shallow Fog
6:54 AM 39.0 °F - 37.9 °F 96% 30.16 in 10.0 mi Calm Calm - N/A Fog Patches of Fog
7:54 AM 46.9 °F - 41.0 °F 80% 30.17 in 10.0 mi Calm Calm - N/A   Partly Cloudy
8:54 AM 52.0 °F - 39.9 °F 63% 30.18 in 10.0 mi NNW 4.6 mph - N/A   Clear
9:54 AM 54.0 °F - 36.0 °F 51% 30.18 in 10.0 mi NW 5.8 mph - N/A   Clear
10:03 AM 53.1 °F - 34.0 °F 48% 30.17 in 10.0 mi Variable 3.5 mph - N/A   Scattered Clouds
10:54 AM 55.9 °F - 32.0 °F 40% 30.19 in 10.0 mi West 8.1 mph - N/A   Scattered Clouds
11:54 AM 55.9 °F - 30.0 °F 37% 30.19 in 10.0 mi Variable 6.9 mph - N/A   Mostly Cloudy
12:54 PM 55.9 °F - 28.9 °F 36% 30.19 in 10.0 mi WNW 6.9 mph - N/A   Mostly Cloudy
1:54 PM 57.9 °F - 30.0 °F 35% 30.18 in 10.0 mi North - - N/A   Mostly Cloudy
2:54 PM 60.1 °F - 30.9 °F 33% 30.17 in 10.0 mi WSW 3.5 mph - N/A   Scattered Clouds
3:54 PM 59.0 °F - 30.0 °F 33% 30.17 in 10.0 mi SW 9.2 mph - N/A   Mostly Cloudy
4:54 PM 60.1 °F - 30.9 °F 33% 30.16 in 10.0 mi SW 10.4 mph - N/A   Clear
5:54 PM 61.0 °F - 30.0 °F 31% 30.17 in 10.0 mi WSW 6.9 mph - N/A   Mostly Cloudy
6:54 PM 59.0 °F - 28.9 °F 32% 30.17 in 10.0 mi Calm Calm - N/A   Clear
7:54 PM 57.0 °F - 30.9 °F 37% 30.18 in 10.0 mi Calm Calm - N/A   Partly Cloudy
8:54 PM 51.1 °F - 35.1 °F 54% 30.19 in 10.0 mi Calm Calm - N/A   Clear
9:54 PM 48.9 °F - 36.0 °F 61% 30.21 in 10.0 mi Calm Calm - N/A   Clear
10:54 PM 48.0 °F - 36.0 °F 63% 30.22 in 10.0 mi SSW 3.5 mph - N/A   Clear
11:54 PM 48.9 °F - 36.0 °F 61% 30.22 in 10.0 mi South 3.5 mph - N/A   Clear